[Iaude] MPEC U260: 2023 FX48 [a=1.49,e=0.35,i=8.0,H=31.3]

mpec at marsden.cfa.harvard.edu mpec at marsden.cfa.harvard.edu
Wed Oct 25 17:28:03 EDT 2023


M.P.E.C. 2023-U260                             Issued 2023 October 25, 21:26 UT

     The Minor Planet Electronic Circulars contain information on unusual
         minor planets, routine data on comets and natural satellites,
         and occasional editorial announcements.  They are published
    on behalf of Division F of the International Astronomical Union by the
          Minor Planet Center, Smithsonian Astrophysical Observatory,
                          Cambridge, MA 02138, U.S.A.
			  
             Prepared using the Tamkin Foundation Computer Network

                              MPC at CFA.HARVARD.EDU
            URL https://www.minorplanetcenter.net/    ISSN 1523-6714

                                   2023 FX48                                    


Observations:
     K23F48X* C2023 03 18.65611913 10 16.526-01 08 01.28         18.3 GVEU260P07
     K23F48X  C2023 03 18.71343113 25 01.949-09 07 28.09         18.5 GVEU260P07
     K23F48X  C2023 03 18.76074513 38 50.642-16 19 52.90         18.4 GVEU260P07
     K23F48X  C2023 03 18.79061813 48 27.406-21 01 25.50         18.0 GVEU260P07
     K23F48X  C2023 03 18.83891414 05 39.840-28 33 35.82         18.4 GVEU260P07

Observer details:
P07 Space Surveillance Telescope, HEH Station.  Observers M. Blythe, R.
    Brungard, P. Festler, T. McVey, J. Paige, G. Spitz, L. Banks.  Measurers
    M. Cornell, M. Kotson, A. Lue, R. Rios, J. Ruprecht, J. Vaillancourt, J.
    Varey, H. Viggh, D. Woods, R. Monardez.  3.5-m f/1. Reflector + CCD.

Orbital elements:
2023 FX48                                                Earth MOID = 0.0000 AU
Epoch 2023 Sept. 13.0 TT = JDT 2460200.5                Veres                   
M  83.92443              (2000.0)            P               Q                  
n   0.53952271     Peri.  206.89520     -0.91061851     +0.41320321             
a   1.4943864      Node   357.48720     -0.34977019     -0.77849978             
e   0.3517859      Incl.    7.97846     -0.22007894     -0.47244175             
P   1.83           H   31.39          G   0.15           U   9                  
Residuals in seconds of arc
230318 P07  0.0   0.1-    230318 P07  0.3+  0.1-    230318 P07  0.0   0.0
230318 P07  0.1-  0.2+    230318 P07  0.2-  0.0

Ephemeris:
2023 FX48                a,e,i = 1.49, 0.35, 8                   q = 0.9687
Date    TT    R. A. (2000) Decl.     Delta      r    Elong.  Phase     V
2023 09 25    20 17 33.8 -25 57 14   0.9318  1.6691   119.2    31.7    33.7
...
2023 10 10    20 33 44.9 -22 57 59   1.1250  1.7291   108.9    33.1    34.2
...
2023 10 18    20 43 58.0 -21 27 39   1.2333  1.7590   103.6    33.4    34.5
...
2023 10 24    20 52 10.5 -20 21 04   1.3162  1.7803    99.8    33.4    34.6
2023 10 25    20 53 34.9 -20 10 02   1.3301  1.7838    99.2    33.4    34.7
2023 10 26    20 54 59.9 -19 59 01   1.3441  1.7873    98.6    33.4    34.7
...
2023 11 01    21 03 41.3 -18 53 03   1.4283  1.8074    94.9    33.2    34.8
...
2023 11 09    21 15 43.0 -17 25 06   1.5416  1.8329    90.0    32.7
...
2023 11 24    21 39 20.2 -14 37 55   1.7542  1.8764    81.2    31.3

M. P. C. Staff               (C) Copyright 2023 MPC           M.P.E.C. 2023-U260





More information about the Iaude mailing list